When you browse on this site, cookies collect data to enhance your experience and personalize the content and advertising you see.
Visit our Privacy Policy to learn more. By continuing to use the site, you agree to this use of cookies and data.
  • In Hungary
  • List of Countries
  • For 7 days
  • Water Temperature
  • Weather Map
  • News
  • Weather Widgets
  • user-avatar
    Login

    Hourly Weather La Colmena

    Today, 18 November, Monday

    Time Temperature Precipitation Wind Pressure Humidity
    00:00 +22°C° 0 mm 1 mps 734 mmHg 68%
    01:00 +21°C° 0 mm 1 mps 734 mmHg 69%
    02:00 +21°C° 0 mm 1 mps 734 mmHg 70%
    03:00 +21°C° 0 mm 1 mps 734 mmHg 71%
    04:00 +21°C° 0 mm 1 mps 734 mmHg 71%
    05:00 +21°C° 0 mm 1 mps 735 mmHg 72%
    06:00 +24°C° 0 mm 1 mps 735 mmHg 65%
    07:00 +27°C° 0 mm 1 mps 736 mmHg 58%
    08:00 +29°C° 0 mm 2 mps 737 mmHg 51%
    09:00 +31°C° 0 mm 2 mps 737 mmHg 45%
    10:00 +35°C° 0 mm 2 mps 737 mmHg 40%
    11:00 +37°C° 0 mm 2 mps 737 mmHg 34%
    12:00 +38°C° 0 mm 2 mps 736 mmHg 31%
    13:00 +39°C° 0 mm 1 mps 736 mmHg 29%
    14:00 +40°C° 0 mm 1 mps 735 mmHg 26%
    15:00 +37°C° 0 mm 1 mps 735 mmHg 31%
    16:00 +36°C° 0 mm 1 mps 735 mmHg 35%
    17:00 +34°C° 0 mm 1 mps 734 mmHg 40%
    18:00 +32°C° 0 mm 1 mps 734 mmHg 44%
    19:00 +30°C° 0 mm 1 mps 735 mmHg 48%
    20:00 +28°C° 0 mm 1 mps 735 mmHg 52%
    21:00 +27°C° 0 mm 1 mps 735 mmHg 54%
    22:00 +26°C° 0 mm 1 mps 735 mmHg 57%
    23:00 +25°C° 0 mm 1 mps 736 mmHg 59%

    Tomorrow, 19 November, Tuesday

    Time Temperature Precipitation Wind Pressure Humidity
    00:00 +25°C° 0 mm 1 mps 736 mmHg 61%
    01:00 +24°C° 0 mm 1 mps 735 mmHg 62%
    02:00 +24°C° 0 mm 1 mps 735 mmHg 64%
    03:00 +23°C° 0 mm 1 mps 736 mmHg 64%
    04:00 +23°C° 0 mm 1 mps 736 mmHg 64%
    05:00 +23°C° 0 mm 1 mps 736 mmHg 64%
    06:00 +25°C° 0 mm 1 mps 737 mmHg 58%
    07:00 +28°C° 0 mm 1 mps 737 mmHg 53%
    08:00 +30°C° 0 mm 2 mps 738 mmHg 48%
    09:00 +32°C° 0 mm 2 mps 738 mmHg 42%
    10:00 +36°C° 0 mm 2 mps 738 mmHg 36%
    11:00 +38°C° 0 mm 2 mps 737 mmHg 30%
    12:00 +39°C° 0 mm 2 mps 737 mmHg 28%
    13:00 +40°C° 0 mm 1 mps 736 mmHg 26%
    14:00 +41°C° 0 mm 1 mps 735 mmHg 25%
    15:00 +39°C° 0 mm 1 mps 735 mmHg 29%
    16:00 +36°C° 0 mm 1 mps 735 mmHg 34%
    17:00 +35°C° 0 mm 1 mps 734 mmHg 38%
    18:00 +32°C° 0 mm 1 mps 734 mmHg 42%
    19:00 +30°C° 0 mm 1 mps 735 mmHg 45%
    20:00 +28°C° 0 mm 1 mps 735 mmHg 49%
    21:00 +28°C° 0 mm 1 mps 735 mmHg 51%
    22:00 +27°C° 0 mm 1 mps 735 mmHg 54%
    23:00 +26°C° 0 mm 1 mps 735 mmHg 56%

    Day after tomorrow, 20 November, Wednesday

    Time Temperature Precipitation Wind Pressure Humidity
    00:00 +26°C° 0 mm 1 mps 735 mmHg 58%
    01:00 +25°C° 0 mm 1 mps 735 mmHg 60%
    02:00 +24°C° 0 mm 1 mps 735 mmHg 62%
    03:00 +24°C° 0 mm 1 mps 735 mmHg 61%
    04:00 +24°C° 0 mm 1 mps 735 mmHg 60%
    05:00 +23°C° 0 mm 1 mps 735 mmHg 60%
    06:00 +26°C° 0 mm 1 mps 736 mmHg 55%
    07:00 +28°C° 0 mm 2 mps 736 mmHg 50%
    08:00 +31°C° 0 mm 2 mps 737 mmHg 45%
    09:00 +34°C° 0 mm 2 mps 737 mmHg 40%
    10:00 +36°C° 0 mm 3 mps 737 mmHg 34%
    11:00 +38°C° 0 mm 3 mps 736 mmHg 29%
    12:00 +39°C° 0 mm 2 mps 736 mmHg 27%
    13:00 +40°C° 0 mm 2 mps 735 mmHg 25%
    14:00 +40°C° 0 mm 2 mps 734 mmHg 22%
    15:00 +39°C° 0 mm 2 mps 734 mmHg 26%
    16:00 +37°C° 0 mm 1 mps 734 mmHg 30%
    17:00 +36°C° 0 mm 1 mps 733 mmHg 35%
    18:00 +34°C° 0 mm 1 mps 733 mmHg 37%
    19:00 +31°C° 0 mm 1 mps 733 mmHg 39%
    20:00 +29°C° 0 mm 1 mps 733 mmHg 42%
    21:00 +28°C° 0 mm 1 mps 733 mmHg 43%
    22:00 +28°C° 0 mm 1 mps 733 mmHg 45%
    23:00 +27°C° 0 mm 1 mps 733 mmHg 46%

    21 November, Thursday

    Time Temperature Precipitation Wind Pressure Humidity
    00:00 +26°C° 0 mm 1 mps 733 mmHg 49%
    01:00 +25°C° 0 mm 1 mps 733 mmHg 52%
    02:00 +25°C° 0 mm 1 mps 732 mmHg 55%
    03:00 +24°C° 0 mm 2 mps 733 mmHg 55%
    04:00 +24°C° 0 mm 2 mps 733 mmHg 55%
    05:00 +24°C° 0 mm 2 mps 734 mmHg 55%
    06:00 +26°C° 0 mm 3 mps 734 mmHg 51%
    07:00 +29°C° 0 mm 4 mps 734 mmHg 46%
    08:00 +32°C° 0 mm 5 mps 735 mmHg 42%
    09:00 +34°C° 0 mm 4 mps 735 mmHg 38%
    10:00 +36°C° 0 mm 4 mps 734 mmHg 33%
    11:00 +38°C° 0 mm 3 mps 734 mmHg 29%
    12:00 +40°C° 0 mm 3 mps 734 mmHg 27%
    13:00 +41°C° 0 mm 2 mps 733 mmHg 25%
    14:00 +42°C° 0 mm 1 mps 732 mmHg 22%
    15:00 +41°C° 0 mm 1 mps 732 mmHg 25%
    16:00 +40°C° 0 mm 1 mps 731 mmHg 29%
    17:00 +37°C° 0 mm 1 mps 731 mmHg 32%
    18:00 +35°C° 0 mm 1 mps 731 mmHg 34%
    19:00 +33°C° 0 mm 1 mps 732 mmHg 36%
    20:00 +31°C° 0 mm 1 mps 732 mmHg 38%
    21:00 +30°C° 0 mm 1 mps 732 mmHg 41%
    22:00 +29°C° 0 mm 1 mps 732 mmHg 44%
    23:00 +28°C° 0 mm 1 mps 732 mmHg 47%

    22 November, Friday

    Time Temperature Precipitation Wind Pressure Humidity
    00:00 +28°C° 0 mm 1 mps 732 mmHg 49%
    01:00 +27°C° 0 mm 1 mps 732 mmHg 51%
    02:00 +26°C° 0 mm 1 mps 732 mmHg 53%
    03:00 +26°C° 0 mm 1 mps 732 mmHg 55%
    04:00 +26°C° 0 mm 1 mps 732 mmHg 56%
    05:00 +25°C° 0 mm 1 mps 732 mmHg 58%
    06:00 +28°C° 0 mm 1 mps 733 mmHg 53%
    07:00 +30°C° 0 mm 2 mps 734 mmHg 48%
    08:00 +34°C° 0 mm 2 mps 734 mmHg 43%
    09:00 +35°C° 0 mm 2 mps 735 mmHg 41%
    10:00 +36°C° 0 mm 2 mps 735 mmHg 38%
    11:00 +37°C° 0 mm 2 mps 735 mmHg 36%
    12:00 +36°C° 0.2 mm 3 mps 735 mmHg 41%
    13:00 +34°C° 0.2 mm 5 mps 734 mmHg 46%
    14:00 +33°C° 0.2 mm 6 mps 734 mmHg 51%
    15:00 +33°C° 0.1 mm 5 mps 734 mmHg 50%
    16:00 +32°C° 0.1 mm 4 mps 734 mmHg 49%
    17:00 +31°C° 0.1 mm 3 mps 734 mmHg 48%
    18:00 +30°C° 0 mm 3 mps 734 mmHg 52%
    19:00 +28°C° 0 mm 3 mps 735 mmHg 56%
    20:00 +26°C° 0 mm 3 mps 735 mmHg 59%
    21:00 +26°C° 0 mm 3 mps 735 mmHg 63%
    22:00 +26°C° 0 mm 2 mps 735 mmHg 66%
    23:00 +26°C° 0 mm 2 mps 735 mmHg 70%

    23 November, Saturday

    Time Temperature Precipitation Wind Pressure Humidity
    00:00 +26°C° 0 mm 2 mps 735 mmHg 71%
    01:00 +25°C° 0 mm 1 mps 735 mmHg 73%
    02:00 +25°C° 0 mm 1 mps 734 mmHg 74%
    03:00 +25°C° 0 mm 1 mps 734 mmHg 75%
    04:00 +25°C° 0 mm 1 mps 735 mmHg 75%
    05:00 +25°C° 0 mm 2 mps 735 mmHg 75%
    06:00 +26°C° 0 mm 2 mps 735 mmHg 73%
    07:00 +26°C° 0 mm 1 mps 736 mmHg 71%
    08:00 +27°C° 0 mm 1 mps 736 mmHg 69%
    09:00 +27°C° 0 mm 1 mps 736 mmHg 69%
    10:00 +27°C° 0 mm 1 mps 736 mmHg 68%
    11:00 +28°C° 0 mm 1 mps 735 mmHg 68%
    12:00 +28°C° 0 mm 1 mps 735 mmHg 66%
    13:00 +29°C° 0 mm 1 mps 734 mmHg 64%
    14:00 +30°C° 0 mm 1 mps 733 mmHg 61%
    15:00 +31°C° 0 mm 1 mps 733 mmHg 58%
    16:00 +32°C° 0 mm 1 mps 733 mmHg 55%
    17:00 +32°C° 0 mm 1 mps 732 mmHg 52%
    18:00 +31°C° 0 mm 1 mps 733 mmHg 59%
    19:00 +29°C° 0 mm 1 mps 733 mmHg 67%
    20:00 +27°C° 0 mm 1 mps 733 mmHg 74%
    21:00 +26°C° 0 mm 1 mps 733 mmHg 73%
    22:00 +26°C° 0 mm 1 mps 733 mmHg 73%
    23:00 +26°C° 0 mm 1 mps 733 mmHg 72%
    Show more